| time (UTC) | temp C | wind direction | speed KPH | gust KPH | rain 1hr cm | rain 24hr cm | rain mn cm | humidity % | barometer mb |
| 20260506133042 | 18 | 300 | 3.2 | 14.5 | 0.00 | 0.00 | 0.00 | 64 | 1005.4 |
| 20260506131540 | 18 | 276 | 9.7 | 16.1 | 0.00 | 0.00 | 0.00 | 62 | 1005.2 |
| 20260506130037 | 18 | 327 | 4.8 | 20.9 | 0.00 | 0.00 | 0.00 | 63 | 1005.4 |
| 20260506124544 | 18 | 197 | 6.4 | 19.3 | 0.00 | 0.00 | 0.00 | 62 | 1005.2 |
| 20260506123044 | 18 | 274 | 6.4 | 16.1 | 0.00 | 0.00 | 0.00 | 63 | 1005.3 |
| 20260506121543 | 17 | 248 | 4.8 | 12.9 | 0.00 | 0.00 | 0.00 | 67 | 1005.4 |
| 20260506120043 | 17 | 199 | 4.8 | 11.3 | 0.00 | 0.00 | 0.00 | 69 | 1005.3 |
| 20260506114546 | 17 | 103 | 3.2 | 6.4 | 0.00 | 0.00 | 0.00 | 68 | 1005.3 |
| 20260506113039 | 16 | 214 | 4.8 | 9.7 | 0.00 | 0.00 | 0.00 | 69 | 1005.4 |
| 20260506111542 | 16 | 219 | 3.2 | 9.7 | 0.00 | 0.00 | 0.00 | 70 | 1005.6 |
| 20260506110050 | 17 | 194 | 6.4 | 16.1 | 0.00 | 0.00 | 0.00 | 67 | 1005.5 |
| 20260506104540 | 17 | 274 | 1.6 | 8.0 | 0.00 | 0.00 | 0.00 | 69 | 1005.6 |
| 20260506103046 | 16 | 165 | 4.8 | 12.9 | 0.00 | 0.00 | 0.00 | 70 | 1005.7 |
| 20260506101549 | 16 | 203 | 4.8 | 17.7 | 0.00 | 0.00 | 0.00 | 70 | 1005.6 |
| 20260506100042 | 16 | 262 | 4.8 | 11.3 | 0.00 | 0.00 | 0.00 | 71 | 1005.6 |
| 20260506094552 | 15 | 231 | 6.4 | 14.5 | 0.00 | 0.00 | 0.00 | 70 | 1005.6 |
| 20260506093046 | 15 | 224 | 6.4 | 16.1 | 0.00 | 0.00 | 0.00 | 71 | 1005.6 |
| 20260506091540 | 15 | 216 | 8.0 | 14.5 | 0.00 | 0.00 | 0.00 | 72 | 1005.4 |
| 20260506090043 | 15 | 278 | 8.0 | 20.9 | 0.00 | 0.00 | 0.00 | 72 | 1005.4 |
| 20260506084536 | 15 | 206 | 6.4 | 19.3 | 0.00 | 0.00 | 0.00 | 72 | 1005.2 |
| 20260506083045 | 15 | 248 | 4.8 | 14.5 | 0.00 | 0.00 | 0.00 | 72 | 1005.0 |
| 20260506081541 | 14 | 240 | 8.0 | 16.1 | 0.00 | 0.00 | 0.00 | 73 | 1005.2 |
| 20260506073046 | 12 | 160 | 3.2 | 4.8 | 0.00 | 0.00 | 0.00 | 83 | 1005.3 |
| 20260506071600 | 12 | 212 | 1.6 | 4.8 | 0.00 | 0.00 | 0.00 | 80 | 1005.1 |
| 20260506061541 | 12 | 143 | 1.6 | 9.7 | 0.00 | 0.00 | 0.00 | 78 | 1004.9 |
| 20260506044541 | 10 | 111 | 3.2 | 12.9 | 0.00 | 0.00 | 0.00 | 86 | 1004.9 |
| 20260506043040 | 10 | 98 | 1.6 | 11.3 | 0.00 | 0.00 | 0.00 | 88 | 1005.1 |
| 20260506041556 | 10 | 6 | 3.2 | 11.3 | 0.00 | 0.00 | 0.00 | 88 | 1005.0 |
| 20260506040043 | 9 | 12 | 3.2 | 11.3 | 0.00 | 0.00 | 0.00 | 89 | 1005.0 |
| 20260506034545 | 9 | 334 | 3.2 | 14.5 | 0.00 | 0.03 | 0.00 | 89 | 1005.3 |
| 20260506033041 | 9 | 78 | 3.2 | 8.0 | 0.00 | 0.03 | 0.00 | 89 | 1005.4 |
| 20260506031540 | 9 | 82 | 3.2 | 11.3 | 0.00 | 0.03 | 0.00 | 89 | 1005.4 |
| 20260506030037 | 9 | 96 | 3.2 | 12.9 | 0.00 | 0.03 | 0.00 | 88 | 1005.6 |
| 20260506024544 | 9 | 11 | 3.2 | 12.9 | 0.00 | 0.08 | 0.00 | 88 | 1005.8 |
| 20260506023043 | 9 | 47 | 3.2 | 11.3 | 0.00 | 0.08 | 0.00 | 89 | 1005.8 |
| 20260506021541 | 9 | 330 | 3.2 | 11.3 | 0.00 | 0.08 | 0.00 | 89 | 1005.9 |
| 20260506020040 | 9 | 9 | 3.2 | 9.7 | 0.00 | 0.08 | 0.00 | 88 | 1006.0 |
| 20260506014545 | 10 | 75 | 4.8 | 12.9 | 0.00 | 0.08 | 0.00 | 88 | 1006.1 |
| 20260506013039 | 10 | 45 | 3.2 | 14.5 | 0.00 | 0.08 | 0.00 | 87 | 1006.1 |
| 20260506011543 | 10 | 44 | 4.8 | 11.3 | 0.00 | 0.08 | 0.00 | 87 | 1006.2 |
| 20260506010047 | 10 | 2 | 4.8 | 16.1 | 0.00 | 0.08 | 0.00 | 87 | 1006.3 |
| 20260506004543 | 10 | 343 | 4.8 | 11.3 | 0.00 | 0.08 | 0.00 | 86 | 1006.4 |
| 20260506003041 | 10 | 10 | 4.8 | 14.5 | 0.00 | 0.08 | 0.00 | 86 | 1006.5 |
| 20260506001557 | 10 | 13 | 6.4 | 12.9 | 0.00 | 0.08 | 0.00 | 86 | 1006.7 |
| 20260506000044 | 10 | 50 | 3.2 | 12.9 | 0.00 | 0.08 | 0.00 | 85 | 1006.7 |
| 20260505234546 | 10 | 313 | 3.2 | 9.7 | 0.00 | 0.08 | 0.00 | 85 | 1006.9 |
| 20260505233047 | 10 | 57 | 3.2 | 14.5 | 0.00 | 0.08 | 0.00 | 84 | 1006.9 |
| 20260505231550 | 10 | 30 | 4.8 | 14.5 | 0.00 | 0.08 | 0.00 | 84 | 1007.0 |
| 20260505230041 | 10 | 356 | 3.2 | 11.3 | 0.00 | 0.08 | 0.00 | 83 | 1007.2 |
| 20260505224543 | 11 | 68 | 3.2 | 8.0 | 0.00 | 0.08 | 0.00 | 82 | 1007.4 |
| 20260505223042 | 11 | 87 | 1.6 | 9.7 | 0.00 | 0.08 | 0.00 | 82 | 1007.3 |
| 20260505221549 | 11 | 3 | 3.2 | 8.0 | 0.00 | 0.08 | 0.00 | 81 | 1007.5 |
| 20260505220044 | 11 | 101 | 3.2 | 9.7 | 0.00 | 0.08 | 0.00 | 79 | 1007.7 |
| 20260505214556 | 11 | 65 | 1.6 | 9.7 | 0.00 | 0.08 | 0.08 | 80 | 1007.8 |
| 20260505213053 | 11 | 5 | 1.6 | 9.7 | 0.00 | 0.08 | 0.08 | 80 | 1007.7 |
| 20260505211542 | 12 | 89 | 3.2 | 8.0 | 0.00 | 0.08 | 0.08 | 80 | 1007.8 |
| 20260505210042 | 12 | 1 | 1.6 | 9.7 | 0.00 | 0.08 | 0.08 | 80 | 1007.8 |
| 20260505204541 | 12 | 57 | 4.8 | 11.3 | 0.00 | 0.08 | 0.08 | 79 | 1007.8 |
| 20260505203046 | 12 | 342 | 3.2 | 11.3 | 0.00 | 0.08 | 0.08 | 78 | 1007.8 |
| 20260505201549 | 12 | 9 | 3.2 | 16.1 | 0.00 | 0.08 | 0.08 | 78 | 1007.8 |
| 20260505200037 | 12 | 110 | 4.8 | 12.9 | 0.00 | 0.08 | 0.08 | 77 | 1007.6 |
| 20260505194541 | 12 | 15 | 4.8 | 14.5 | 0.00 | 0.08 | 0.08 | 77 | 1007.9 |
| 20260505193048 | 13 | 356 | 3.2 | 6.4 | 0.00 | 0.08 | 0.08 | 77 | 1008.0 |
| 20260505191550 | 13 | 2 | 3.2 | 8.0 | 0.00 | 0.08 | 0.08 | 76 | 1008.1 |
| 20260505190053 | 13 | 359 | 6.4 | 11.3 | 0.00 | 0.08 | 0.08 | 76 | 1008.1 |
| 20260505184542 | 13 | 17 | 4.8 | 11.3 | 0.00 | 0.08 | 0.08 | 75 | 1008.0 |
| 20260505183047 | 13 | 25 | 3.2 | 11.3 | 0.00 | 0.08 | 0.08 | 74 | 1008.0 |
| 20260505181544 | 14 | 341 | 0.0 | 8.0 | 0.00 | 0.08 | 0.08 | 73 | 1007.8 |
| 20260505180049 | 14 | 37 | 3.2 | 9.7 | 0.00 | 0.08 | 0.08 | 72 | 1007.9 |
| 20260505174543 | 14 | 347 | 3.2 | 12.9 | 0.00 | 0.08 | 0.08 | 71 | 1007.7 |
| 20260505173043 | 14 | 125 | 4.8 | 9.7 | 0.00 | 0.08 | 0.08 | 71 | 1007.8 |
| 20260505171542 | 15 | 244 | 4.8 | 11.3 | 0.00 | 0.08 | 0.08 | 70 | 1007.9 |
| 20260505170054 | 15 | 54 | 3.2 | 12.9 | 0.00 | 0.08 | 0.08 | 70 | 1007.8 |
| 20260505164540 | 15 | 25 | 3.2 | 14.5 | 0.00 | 0.08 | 0.08 | 70 | 1007.9 |
| 20260505163042 | 15 | 17 | 3.2 | 12.9 | 0.00 | 0.08 | 0.08 | 69 | 1008.2 |
| 20260505161541 | 15 | 54 | 6.4 | 16.1 | 0.00 | 0.08 | 0.08 | 69 | 1008.3 |
| 20260505153052 | 15 | 343 | 6.4 | 20.9 | 0.00 | 0.08 | 0.08 | 67 | 1008.5 |
| 20260505151542 | 15 | 354 | 11.3 | 24.1 | 0.00 | 0.08 | 0.08 | 67 | 1008.7 |